"TOA5","MOW","CPU:UNC_MeetingWaters","DataHourly"
"TIMESTAMP","SondeTempC","SpCond","DOSat","DOmg","pH","Turb","BattVolt_Min"
"TS","","","","","","",""
"","Smp","Smp","Smp","Smp","Smp","Smp","Min"
"2009-11-01 04:00:00",19.2299995422,0.00400000018999,79.0,-26.7999992371,7.55000019073,-4.19999980927,12.8100004196
"2009-11-01 05:00:00",19.1499996185,0.00400000018999,98.5,-27.0,7.55999994278,-2.79999995232,12.8000001907
"2009-11-01 06:00:00",18.9699993134,0.00400000018999,98.6999969482,-27.6000003815,7.57000017166,-3.20000004768,12.7600002289
"2009-11-01 07:00:00",17.8299999237,0.00400000018999,99.8000030518,-24.5,7.51000022888,-4.19999980927,12.7299995422
"2009-11-01 08:00:00",18.4699993134,0.118000000715,94.8000030518,-39.5,7.78000020981,123.400001526,12.6999998093
"2009-11-01 09:00:00",17.6299991608,0.0780000016093,93.6999969482,-38.5999984741,7.76000022888,186.699996948,12.6700000763
"2009-11-01 10:00:00",17.6100006104,0.130999997258,93.5999984741,-39.7000007629,7.78000020981,132.100006104,12.6400003433
"2009-11-01 11:00:00",17.5300006866,0.151999995112,91.6999969482,-39.0999984741,7.76999998093,36.7999992371,12.6199998856
"2009-11-01 12:00:00",16.8999996185,0.126000002027,93.1999969482,-32.5999984741,7.65999984741,75.9000015259,12.6099996567
"2009-11-01 13:00:00",15.5100002289,0.0750000029802,97.6999969482,-36.4000015259,7.73000001907,227.0,12.6000003815
"2009-11-01 14:00:00",15.3500003815,0.0869999974966,97.3000030518,-33.0999984741,7.67000007629,145.899993896,12.6499996185
"2009-11-01 15:00:00",15.7700004578,0.119000002742,96.6999969482,-38.5999984741,7.76999998093,118.900001526,12.9200000763
"2009-11-01 16:00:00",15.970000267,0.133000001311,95.1999969482,-39.7000007629,7.78999996185,78.9000015259,13.3400001526
"2009-11-01 17:00:00",16.1100006104,0.180999994278,93.9000015259,-42.2000007629,7.82999992371,71.0999984741,13.1599998474
"2009-11-01 18:00:00",16.2099990845,0.203999996185,93.4000015259,-44.9000015259,7.88000011444,69.6999969482,13.0500001907
"2009-11-01 19:00:00",16.2299995422,0.140000000596,93.4000015259,-46.9000015259,7.90999984741,62.0,13.0
"2009-11-01 20:00:00",16.1800003052,0.140000000596,93.0999984741,-48.2000007629,7.94000005722,32.5,12.8999996185
"2009-11-01 21:00:00",16.0300006866,0.0439999997616,92.8000030518,-48.5999984741,7.94000005722,15.8999996185,12.8000001907
"2009-11-01 22:00:00",15.8100004196,0.0149999996647,92.9000015259,-49.0,7.94999980927,10.6999998093,12.75
"2009-11-01 23:00:00",15.3900003433,0.00800000037998,93.3000030518,-49.7999992371,7.96999979019,7.90000009537,12.6499996185
"2009-11-02 00:00:00",14.8999996185,0.00800000037998,94.0,-52.2999992371,8.01000022888,6.5,12.6000003815
"2009-11-02 01:00:00",13.6400003433,0.00700000021607,95.6999969482,-66.3000030518,8.27000045776,5.90000009537,12.5600004196
"2009-11-02 02:00:00",14.529999733,0.00700000021607,94.5999984741,-58.5,8.11999988556,6.69999980927,12.5699996948
"2009-11-02 03:00:00",12.970000267,0.00700000021607,96.4000015259,-49.4000015259,7.96999979019,3.29999995232,12.5600004196
"2009-11-02 04:00:00",12.2299995422,0.00700000021607,97.0,-48.2000007629,7.94999980927,2.20000004768,12.5500001907
"2009-11-02 05:00:00",12.1400003433,0.00700000021607,95.6999969482,-46.5,7.92000007629,0.600000023842,12.5600004196
"2009-11-02 06:00:00",11.75,0.00700000021607,97.5999984741,-47.0,7.92999982834,0.5,12.5500001907
"2009-11-02 07:00:00",11.6400003433,0.00700000021607,97.8000030518,-45.0,7.88999986649,-0.10000000149,12.5600004196
"2009-11-02 08:00:00",11.6300001144,0.00700000021607,97.6999969482,-44.4000015259,7.88000011444,-1.10000002384,12.5600004196
"2009-11-02 09:00:00",11.4099998474,0.00700000021607,97.9000015259,-40.5,7.80999994278,-1.20000004768,12.5500001907
"2009-11-02 10:00:00",11.4799995422,0.00700000021607,97.6999969482,-32.0,7.65999984741,-1.89999997616,12.5399999619
"2009-11-02 11:00:00",11.279999733,0.00700000021607,96.4000015259,-33.0999984741,7.67999982834,-1.79999995232,12.5600004196
"2009-11-02 12:00:00",11.6099996567,0.00600000005215,95.9000015259,-26.3999996185,7.55999994278,-1.79999995232,12.5399999619
"2009-11-02 13:00:00",11.75,0.00600000005215,99.5999984741,-22.1000003815,7.48000001907,-0.800000011921,12.6400003433
"2009-11-02 14:00:00",12.1999998093,0.00600000005215,101.099998474,-15.1999998093,7.36000013351,-2.20000004768,13.3199996948
"2009-11-02 15:00:00",12.9200000763,0.00499999988824,102.0,-11.8999996185,7.30000019073,-2.40000009537,13.5
"2009-11-02 16:00:00",14.1899995804,0.00400000018999,101.599998474,-2.59999990463,7.13000011444,-2.40000009537,13.6499996185
"2009-11-02 17:00:00",15.4799995422,0.00200000009499,100.099998474,21.1000003815,6.71000003815,14.1999998093,13.5900001526
"2009-11-02 18:00:00",15.8400001526,0.0010000000475,101.900001526,20.7999992371,6.71999979019,48.5,14.1999998093
"2009-11-02 19:00:00",15.6000003815,0.0010000000475,98.6999969482,19.5,6.73999977112,74.5999984741,13.3800001144
"2009-11-02 20:00:00",14.8299999237,0.0010000000475,95.4000015259,19.7000007629,6.73999977112,55.7999992371,13.1400003433
"2009-11-02 21:00:00",14.1700000763,0.0010000000475,95.6999969482,10.5,6.90000009537,29.7000007629,13.0
"2009-11-02 22:00:00",12.9499998093,0.0010000000475,87.5,2.20000004768,7.05000019073,21.2000007629,12.9499998093
"2009-11-02 23:00:00",12.220000267,0.0010000000475,86.9000015259,-1.29999995232,7.11000013351,6.40000009537,12.9200000763
"2009-11-03 00:00:00",11.5799999237,0.0010000000475,101.900001526,-5.59999990463,7.19000005722,-3.70000004768,12.8900003433
"2009-11-03 01:00:00",11.4399995804,0.00200000009499,103.0,-4.69999980927,7.17000007629,0.600000023842,12.8800001144
"2009-11-03 02:00:00",10.6499996185,0.00200000009499,93.8000030518,-5.0,7.17999982834,8.19999980927,12.8400001526
"2009-11-03 03:00:00",10.2399997711,0.00200000009499,96.5999984741,-11.3000001907,7.28999996185,-2.0,12.8299999237
"2009-11-03 04:00:00",9.97999954224,0.00200000009499,103.199996948,-11.3000001907,7.28999996185,-3.59999990463,12.8199996948
"2009-11-03 05:00:00",9.64000034332,0.00200000009499,103.099998474,-15.0,7.36000013351,-5.19999980927,12.8100004196
"2009-11-03 06:00:00",9.31999969482,0.00300000002608,102.5,-17.2000007629,7.40000009537,-3.90000009537,12.779999733
"2009-11-03 07:00:00",8.72000026703,0.00300000002608,103.099998474,-17.2000007629,7.40000009537,-3.5,12.7700004578
"2009-11-03 08:00:00",8.77000045776,0.00300000002608,102.699996948,-23.8999996185,7.51999998093,-4.0,12.7700004578
"2009-11-03 09:00:00",8.5,0.00300000002608,103.0,-19.8999996185,7.44999980927,-0.800000011921,12.7600002289
"2009-11-03 10:00:00",8.06999969482,0.00300000002608,102.599998474,-22.2000007629,7.48999977112,-1.79999995232,12.75
"2009-11-03 11:00:00",8.15999984741,0.00300000002608,102.800003052,-22.3999996185,7.48999977112,-1.29999995232,12.7299995422
"2009-11-03 12:00:00",8.34000015259,0.00400000018999,101.599998474,-25.2999992371,7.55000019073,-3.90000009537,12.7399997711
"2009-11-03 13:00:00",9.55000019073,0.00400000018999,102.099998474,-27.2999992371,7.57999992371,-5.90000009537,12.7899999619
"2009-11-03 14:00:00",11.1099996567,0.00400000018999,100.900001526,-30.2000007629,7.63000011444,-6.09999990463,13.220000267
"2009-11-03 15:00:00",12.6400003433,0.00400000018999,100.699996948,-29.2000007629,7.61000013351,-2.90000009537,13.1999998093
"2009-11-03 16:00:00",16.1000003815,0.00200000009499,99.3000030518,-22.8999996185,7.48999977112,-3.70000004768,13.279999733
"2009-11-03 17:00:00",17.8299999237,0.0,95.6999969482,24.0,6.65999984741,-3.0,13.4399995804
"2009-11-03 18:00:00",16.6299991608,0.0,96.6999969482,26.0,6.63000011444,-2.70000004768,13.3199996948
"2009-11-03 19:00:00",16.5300006866,0.0,96.1999969482,25.0,6.63999986649,-1.70000004768,13.1400003433
"2009-11-03 20:00:00",15.9399995804,0.0,95.5,19.7000007629,6.73999977112,7.80000019073,13.1000003815
"2009-11-03 21:00:00",15.0200004578,0.0,95.5,16.5,6.78999996185,11.6000003815,12.970000267
"2009-11-03 22:00:00",14.1199998856,0.0,95.5999984741,12.3999996185,6.86000013351,5.69999980927,12.9300003052
"2009-11-03 23:00:00",13.3400001526,0.0,96.0,5.69999980927,6.98000001907,0.600000023842,12.8599996567
"2009-11-04 00:00:00",12.8299999237,0.0010000000475,96.3000030518,9.30000019073,6.92000007629,-1.0,12.8800001144
"2009-11-04 01:00:00",12.4600000381,0.0010000000475,96.0999984741,1.10000002384,7.07000017166,-1.79999995232,12.8500003815
"2009-11-04 02:00:00",12.0799999237,0.0010000000475,96.3000030518,-1.29999995232,7.11000013351,-2.29999995232,12.8299999237
"2009-11-04 03:00:00",11.220000267,0.0010000000475,95.5999984741,-5.59999990463,7.19000005722,-2.29999995232,12.8000001907
"2009-11-04 04:00:00",10.0100002289,0.0010000000475,95.4000015259,-13.8000001907,7.32999992371,-2.90000009537,12.779999733
"2009-11-04 05:00:00",9.47000026703,0.0010000000475,96.8000030518,-21.6000003815,7.48000001907,-2.79999995232,12.7600002289
"2009-11-04 06:00:00",9.38000011444,0.0010000000475,96.9000015259,-26.2000007629,7.55999994278,-2.79999995232,12.7100000381
"2009-11-04 07:00:00",8.25,0.0010000000475,98.0,-24.1000003815,7.51999998093,-2.70000004768,12.7100000381
"2009-11-04 08:00:00",7.86000013351,0.0010000000475,99.1999969482,-16.8999996185,7.38999986649,-3.79999995232,12.6899995804
"2009-11-04 09:00:00",7.07000017166,0.0010000000475,100.400001526,-22.1000003815,7.48999977112,-3.90000009537,12.6499996185
"2009-11-04 10:00:00",6.88999986649,0.0010000000475,99.1999969482,-26.1000003815,7.55999994278,-4.19999980927,12.6700000763
"2009-11-04 11:00:00",6.98999977112,0.0010000000475,100.0,-31.2000007629,7.65999984741,-4.40000009537,12.6199998856
"2009-11-04 12:00:00",7.84999990463,0.0010000000475,96.3000030518,-33.2000007629,7.69000005722,-4.30000019073,12.6499996185
"2009-11-04 13:00:00",9.40999984741,0.0010000000475,95.9000015259,-32.0999984741,7.67000007629,-4.5,12.6899995804
"2009-11-04 14:00:00",10.2299995422,0.0010000000475,99.4000015259,-30.1000003815,7.63000011444,-4.5,13.1999998093
"2009-11-04 15:00:00",11.1499996185,0.0010000000475,94.6999969482,-23.6000003815,7.51000022888,1317.0,13.2100000381
"2009-11-04 16:00:00",15.4799995422,0.0,97.5999984741,-8.89999961853,7.23999977112,-5.0,13.3699998856
"2009-11-04 17:00:00",16.2299995422,0.0,97.8000030518,21.5,6.69999980927,-1.0,14.029999733
"2009-11-04 18:00:00",15.6700000763,0.0,99.4000015259,20.7999992371,6.71999979019,-5.40000009537,14.2100000381
"2009-11-04 19:00:00",15.4600000381,0.0,97.0999984741,22.1000003815,6.69000005722,-5.19999980927,14.1899995804
"2009-11-04 20:00:00",14.9099998474,0.0,93.1999969482,9.80000019073,6.90999984741,-5.09999990463,13.3299999237
"2009-11-04 21:00:00",13.720000267,0.0,95.5999984741,1.60000002384,7.05999994278,-5.09999990463,12.9899997711
"2009-11-04 22:00:00",12.470000267,0.0,94.5,-5.0,7.17999982834,259.5,12.9300003052
"2009-11-04 23:00:00",12.1800003052,0.0,102.0,-1.60000002384,7.11000013351,-5.30000019073,12.8900003433
"2009-11-05 00:00:00",11.4399995804,0.0010000000475,97.3000030518,-15.1999998093,7.36000013351,-3.59999990463,12.8800001144
"2009-11-05 01:00:00",10.9799995422,0.0010000000475,93.8000030518,-3.90000009537,7.15999984741,-4.5,12.8500003815
"2009-11-05 02:00:00",10.4399995804,0.0010000000475,91.5999984741,-4.90000009537,7.17000007629,-4.5,12.8299999237
"2009-11-05 03:00:00",9.53999996185,0.0010000000475,96.6999969482,-21.5,7.46999979019,-3.90000009537,12.8100004196
"2009-11-05 04:00:00",10.0200004578,0.0010000000475,103.0,-14.5,7.34999990463,-4.0,12.7899999619
"2009-11-05 05:00:00",9.65999984741,0.0010000000475,103.099998474,-20.5,7.46000003815,-2.70000004768,12.7600002289
"2009-11-05 06:00:00",9.18000030518,0.00200000009499,103.199996948,-15.5,7.36999988556,-3.59999990463,12.720000267
"2009-11-05 07:00:00",8.85000038147,0.00200000009499,103.099998474,-26.0,7.55999994278,-4.19999980927,12.6999998093
"2009-11-05 08:00:00",8.06000041962,0.00200000009499,103.400001526,-27.5,7.59000015259,-4.40000009537,12.6899995804
"2009-11-05 09:00:00",8.52999973297,0.00200000009499,103.199996948,-23.2999992371,7.51000022888,-4.19999980927,12.6700000763
"2009-11-05 10:00:00",7.96000003815,0.00200000009499,103.400001526,-27.5,7.59000015259,-5.69999980927,12.6599998474
"2009-11-05 11:00:00",7.42000007629,0.00300000002608,99.8000030518,-27.3999996185,7.59000015259,-3.09999990463,12.6499996185
"2009-11-05 12:00:00",7.78999996185,0.00300000002608,103.599998474,-31.2999992371,7.65999984741,1.39999997616,12.6499996185
"2009-11-05 13:00:00",9.02000045776,0.00300000002608,102.599998474,-33.0,7.67999982834,-5.40000009537,12.720000267
"2009-11-05 14:00:00",10.4799995422,0.00300000002608,101.5,-35.4000015259,7.71999979019,-5.5,13.0500001907
"2009-11-05 15:00:00",11.5399999619,0.00200000009499,100.0,-10.1999998093,7.26999998093,-5.80000019073,13.2700004578
"2009-11-05 16:00:00",16.4899997711,0.0,94.4000015259,14.8000001907,6.82000017166,8.89999961853,13.3400001526
"2009-11-05 17:00:00",17.25,0.0,99.5999984741,22.7000007629,6.67999982834,-3.59999990463,13.6000003815
"2009-11-05 18:00:00",15.3100004196,0.0,98.0999984741,24.2000007629,6.65999984741,-3.90000009537,13.4300003052
"2009-11-05 19:00:00",15.1800003052,0.0,87.5,20.2999992371,6.71999979019,-4.40000009537,13.1599998474
"2009-11-05 20:00:00",14.4200000763,0.0,90.4000015259,17.7000007629,6.76999998093,-1.5,13.0799999237
"2009-11-05 21:00:00",13.3400001526,0.0,93.9000015259,13.3000001907,6.84999990463,-5.0,12.970000267
"2009-11-05 22:00:00",11.8400001526,0.0,90.3000030518,3.90000009537,7.01999998093,-4.19999980927,12.9200000763
"2009-11-05 23:00:00",10.7899999619,0.0,89.0,-8.0,7.23000001907,-0.20000000298,12.8400001526
"2009-11-06 00:00:00",10.1599998474,0.0,90.6999969482,10.1000003815,6.90000009537,-3.09999990463,12.8599996567
"2009-11-06 01:00:00",9.82999992371,0.0,103.099998474,-3.20000004768,7.13999986649,-3.90000009537,12.8299999237
"2009-11-06 02:00:00",9.18000030518,0.0,102.199996948,-12.8000001907,7.32000017166,-5.80000019073,12.8100004196
"2009-11-06 03:00:00",8.43999958038,0.0,96.0999984741,1.70000004768,7.05999994278,-3.79999995232,12.7899999619
"2009-11-06 04:00:00",8.65999984741,0.0,103.0,-22.7000007629,7.5,-4.19999980927,12.7600002289
"2009-11-06 05:00:00",8.18999958038,0.0,102.800003052,-23.8999996185,7.51999998093,-5.90000009537,12.7399997711
"2009-11-06 06:00:00",7.46999979019,0.0010000000475,103.199996948,-23.3999996185,7.51000022888,-5.59999990463,12.7100000381
"2009-11-06 07:00:00",7.21000003815,0.0010000000475,103.5,-17.0,7.40000009537,2.90000009537,12.6700000763
"2009-11-06 08:00:00",6.53999996185,0.0010000000475,104.0,-16.7000007629,7.38999986649,-2.5,12.6499996185
"2009-11-06 09:00:00",6.11000013351,0.0010000000475,104.0,-23.7000007629,7.51999998093,2.5,12.6300001144
"2009-11-06 10:00:00",6.23000001907,0.0010000000475,103.400001526,-28.6000003815,7.61000013351,7.5,12.6199998856
"2009-11-06 11:00:00",5.55000019073,0.0010000000475,102.900001526,-30.1000003815,7.63999986649,-5.09999990463,12.6199998856
"2009-11-06 12:00:00",6.94000005722,0.0010000000475,102.800003052,-38.2000007629,7.78000020981,-1.0,12.6000003815
"2009-11-06 13:00:00",7.73999977112,0.0010000000475,102.099998474,-26.1000003815,7.55999994278,-3.59999990463,12.6700000763
"2009-11-06 14:00:00",9.92000007629,0.0,100.099998474,-1.0,7.09999990463,-4.90000009537,12.8699998856
"2009-11-06 15:00:00",11.1099996567,0.0,99.5999984741,9.80000019073,6.90999984741,-4.69999980927,13.1999998093
"2009-11-06 16:00:00",15.4600000381,0.0,99.5999984741,20.2000007629,6.73000001907,-5.0,13.3100004196
"2009-11-06 17:00:00",15.7600002289,0.0,100.400001526,17.6000003815,6.76999998093,-5.0,13.5900001526
"2009-11-06 18:00:00",13.4899997711,0.0,99.0999984741,17.2000007629,6.78000020981,5.0,13.5200004578
"2009-11-06 19:00:00",13.3800001144,0.0,99.5,12.6000003815,6.86000013351,-3.59999990463,13.1999998093
"2009-11-06 20:00:00",12.5699996948,0.0,93.0999984741,8.80000019073,6.92999982834,-3.90000009537,13.1099996567
"2009-11-06 21:00:00",11.3299999237,0.0,94.8000030518,1.10000002384,7.07000017166,6.69999980927,12.970000267
"2009-11-06 22:00:00",9.92000007629,0.0,101.300003052,-10.6999998093,7.28000020981,-5.90000009537,12.9200000763
"2009-11-06 23:00:00",9.02000045776,0.0,99.1999969482,-9.5,7.26000022888,6.19999980927,12.8900003433
"2009-11-07 00:00:00",8.44999980927,0.0,95.4000015259,-2.09999990463,7.11999988556,-2.70000004768,12.8599996567
"2009-11-07 01:00:00",7.5,0.0,103.800003052,-14.8999996185,7.36000013351,1.79999995232,12.8400001526
"2009-11-07 02:00:00",6.73999977112,0.0010000000475,103.900001526,-8.10000038147,7.23000001907,4.09999990463,12.8100004196
"2009-11-07 03:00:00",6.34000015259,0.0010000000475,100.300003052,-19.5,7.44000005722,-1.79999995232,12.7899999619
"2009-11-07 04:00:00",6.11999988556,0.0010000000475,103.599998474,-32.2999992371,7.67999982834,-5.5,12.7600002289
"2009-11-07 05:00:00",5.36999988556,0.0010000000475,102.5,-33.0999984741,7.69999980927,6.0,12.7399997711
"2009-11-07 06:00:00",4.73000001907,0.0010000000475,102.0,-37.0999984741,7.76999998093,4.59999990463,12.7100000381
"2009-11-07 07:00:00",3.28999996185,0.00200000009499,104.599998474,-32.5999984741,7.69000005722,-3.59999990463,12.6499996185
"2009-11-07 08:00:00",4.07999992371,0.00200000009499,101.300003052,-38.2000007629,7.78999996185,2.20000004768,12.6499996185
"2009-11-07 09:00:00",3.58999991417,0.00200000009499,103.400001526,-35.5,7.73999977112,3.20000004768,12.6199998856
"2009-11-07 10:00:00",3.53999996185,0.00200000009499,102.199996948,-35.7000007629,7.75,0.800000011921,12.6000003815
"2009-11-07 11:00:00",3.06999993324,0.00200000009499,101.800003052,-33.7000007629,7.71000003815,-0.300000011921,12.5799999237
"2009-11-07 12:00:00",3.75999999046,0.00300000002608,102.699996948,-37.0999984741,7.76999998093,3.20000004768,12.5799999237
"2009-11-07 13:00:00",5.34000015259,0.00300000002608,101.400001526,-41.7000007629,7.84999990463,5.0,12.6499996185
"2009-11-07 14:00:00",7.34999990463,0.00300000002608,101.300003052,-39.5,7.80999994278,-5.80000019073,12.9899997711
"2009-11-07 15:00:00",9.25,0.0010000000475,99.8000030518,-16.3999996185,7.38000011444,-5.80000019073,13.2700004578
"2009-11-07 16:00:00",14.75,0.0,95.1999969482,11.5,6.88000011444,-6.19999980927,13.3400001526
"2009-11-07 17:00:00",16.0900001526,0.0,95.3000030518,19.2000007629,6.73999977112,-6.30000019073,13.6099996567
"2009-11-07 18:00:00",14.6499996185,0.0,98.3000030518,18.2000007629,6.76000022888,-6.30000019073,13.2899999619
"2009-11-07 19:00:00",14.8900003433,0.0,97.3000030518,16.2999992371,6.80000019073,-6.30000019073,13.1800003052
"2009-11-07 20:00:00",13.8100004196,0.0,98.8000030518,13.8999996185,6.84000015259,-6.19999980927,13.1000003815
"2009-11-07 21:00:00",12.5600004196,0.0,99.8000030518,5.0,7.0,-6.09999990463,12.9799995422
"2009-11-07 22:00:00",11.1599998474,0.0,100.900001526,-3.59999990463,7.15000009537,-6.0,12.9200000763
"2009-11-07 23:00:00",10.279999733,0.0,101.099998474,-13.3000001907,7.32999992371,-5.90000009537,12.8999996185
"2009-11-08 00:00:00",9.68999958038,0.0,101.599998474,-17.7999992371,7.40999984741,-4.40000009537,12.8800001144
"2009-11-08 01:00:00",9.25,0.0,101.0,-21.8999996185,7.48000001907,-5.69999980927,12.8400001526
"2009-11-08 02:00:00",8.85000038147,0.0,101.699996948,-22.5,7.48999977112,-3.59999990463,12.8199996948
"2009-11-08 03:00:00",8.56000041962,0.0010000000475,103.0,-23.2999992371,7.51000022888,1290.0,12.8000001907
"2009-11-08 04:00:00",8.23999977112,0.0010000000475,101.599998474,-29.2000007629,7.61999988556,-5.40000009537,12.779999733
"2009-11-08 05:00:00",8.17000007629,0.0010000000475,101.5,-30.1000003815,7.63000011444,-5.59999990463,12.7600002289
"2009-11-08 06:00:00",7.67000007629,0.0010000000475,100.699996948,-34.4000015259,7.71000003815,-3.29999995232,12.720000267
"2009-11-08 07:00:00",7.44000005722,0.0010000000475,100.599998474,-35.4000015259,7.73000001907,-5.59999990463,12.6999998093
"2009-11-08 08:00:00",6.96000003815,0.0010000000475,101.5,-35.0,7.71999979019,-2.0,12.6700000763
"2009-11-08 09:00:00",6.86000013351,0.0010000000475,101.099998474,-38.2999992371,7.78999996185,-5.59999990463,12.6499996185
"2009-11-08 10:00:00",6.67000007629,0.0010000000475,101.0,-40.2999992371,7.82000017166,-3.90000009537,12.6199998856
"2009-11-08 11:00:00",6.69999980927,0.0010000000475,100.300003052,-42.7999992371,7.86999988556,-5.30000019073,12.6099996567
"2009-11-08 12:00:00",7.19999980927,0.0010000000475,101.5,-42.7000007629,7.86999988556,-3.90000009537,12.6199998856
"2009-11-08 13:00:00",8.48999977112,0.0010000000475,101.900001526,-44.0999984741,7.88999986649,-2.70000004768,12.6700000763
"2009-11-08 14:00:00",10.6599998474,0.0010000000475,100.099998474,-33.2000007629,7.67999982834,-2.0,12.9899997711
"2009-11-08 15:00:00",13.029999733,0.0,98.0999984741,-8.80000019073,7.23999977112,-5.90000009537,13.2399997711
"2009-11-08 16:00:00",18.5400009155,0.0,95.1999969482,15.8000001907,6.80999994278,-5.90000009537,13.3199996948
"2009-11-08 17:00:00",19.3299999237,0.0,93.0,24.6000003815,6.65000009537,-6.09999990463,13.8599996567
"2009-11-08 18:00:00",17.1299991608,0.0,95.0,14.8000001907,6.82000017166,-6.30000019073,14.0500001907
"2009-11-08 19:00:00",16.7299995422,0.0,95.3000030518,11.6000003815,6.88000011444,-6.30000019073,13.6400003433
"2009-11-08 20:00:00",15.5600004196,0.0,97.1999969482,-1.0,7.09999990463,-6.0,13.1000003815
"2009-11-08 21:00:00",14.4399995804,0.0,98.6999969482,-8.80000019073,7.23999977112,-6.0,12.9799995422
"2009-11-08 22:00:00",13.5399999619,0.0,100.0,-8.69999980927,7.23999977112,-5.90000009537,12.9300003052
"2009-11-08 23:00:00",12.6199998856,0.0,100.900001526,-8.10000038147,7.23000001907,-2.70000004768,12.9099998474
"2009-11-09 00:00:00",12.2399997711,0.0,101.0,-13.8000001907,7.32999992371,-6.0,12.8800001144
"2009-11-09 01:00:00",11.8100004196,0.0,101.599998474,-12.6999998093,7.30999994278,9.69999980927,12.8500003815
"2009-11-09 02:00:00",11.220000267,0.0010000000475,101.800003052,-11.3000001907,7.28999996185,-5.59999990463,12.8299999237
"2009-11-09 03:00:00",10.6999998093,0.0010000000475,101.800003052,-15.6000003815,7.36999988556,-5.19999980927,12.8000001907
"2009-11-09 04:00:00",10.2299995422,0.0010000000475,101.199996948,-23.2000007629,7.5,-5.80000019073,12.7899999619
"2009-11-09 05:00:00",9.44999980927,0.0010000000475,102.400001526,-18.6000003815,7.42000007629,-5.69999980927,12.7600002289
"2009-11-09 06:00:00",9.32999992371,0.0010000000475,102.199996948,-27.0,7.57000017166,-5.69999980927,12.7399997711
"2009-11-09 07:00:00",9.13000011444,0.0010000000475,102.5,-25.0,7.53999996185,-5.80000019073,12.7100000381
"2009-11-09 08:00:00",8.47000026703,0.0010000000475,103.0,-26.5,7.57000017166,-5.69999980927,12.6899995804
"2009-11-09 09:00:00",7.92000007629,0.00200000009499,103.199996948,-26.7000007629,7.57000017166,-5.5,12.6499996185
"2009-11-09 10:00:00",7.84000015259,0.00200000009499,103.400001526,-22.7999992371,7.5,-5.59999990463,12.6400003433
"2009-11-09 11:00:00",7.17000007629,0.00200000009499,103.900001526,-22.5,7.5,-5.5,12.6000003815
"2009-11-09 12:00:00",7.98000001907,0.00200000009499,103.0,-29.8999996185,7.63000011444,-5.5,12.6199998856
"2009-11-09 13:00:00",9.39000034332,0.00200000009499,101.699996948,-38.4000015259,7.78000020981,-5.69999980927,12.720000267
"2009-11-09 14:00:00",10.9099998474,0.00200000009499,100.800003052,-33.7000007629,7.69000005722,-5.90000009537,13.1000003815
"2009-11-09 15:00:00",13.1400003433,0.00200000009499,100.5,-24.2000007629,7.51999998093,-4.19999980927,13.3900003433
"2009-11-09 16:00:00",17.75,0.0,98.0,-0.699999988079,7.09999990463,-4.90000009537,13.5100002289
"2009-11-09 17:00:00",17.6100006104,0.0,104.0,8.30000019073,6.94000005722,-5.09999990463,14.0699996948
"2009-11-09 18:00:00",17.2099990845,0.0,109.199996948,10.1999998093,6.90000009537,-3.90000009537,14.0699996948
"2009-11-09 19:00:00",16.5699996948,0.0,98.0,-1.89999997616,7.11999988556,-6.30000019073,14.0699996948